Beaufort MCAS, SC

4:20 PM EDT on March 24, 2017 (GMT -0400)
Beaufort Marine Corps Air Station

Weather History for KNBC - November, 2010

Change the Weather History Date:

Sunday, November 7, 2010

  Actual Average Record
Temperature  
Mean Temperature 46 °F -  
Max Temperature 59 °F 69 °F 83 °F (1942)
Min Temperature 36 °F 48 °F 30 °F (1967)
Degree Days  
Heating Degree Days 18    
Moisture  
Dew Point 31 °F    
Average Humidity 59    
Maximum Humidity 82    
Minimum Humidity 27    
Precipitation  
Precipitation 0.00 in - - ()
Sea Level Pressure  
Sea Level Pressure 30.34 in    
Wind  
Wind Speed 4 mph (NNW)    
Max Wind Speed 14 mph    
Max Gust Speed -    
Visibility 10 miles    
Events      
Averages and records for this station are not official NWS values.
T = Trace of Precipitation, MM = Missing Value Source: NWS Daily Summary

Daily Weather History Graph

Daily Weather History Graph

Search for Another Location

Airport or City:

Trip Planner

Search our weather history database for the weather conditions in past years. The results will help you decide how hot, cold, wet, or windy it might be!

Date:

Astronomy

Nov. 07, 2010 Rise Set
Actual Time 6:45 AM EST 5:27 PM EST
Civil Twilight 6:19 AM EST 5:53 PM EST
Nautical Twilight 5:50 AM EST 6:22 PM EST
Astronomical Twilight 5:21 AM EST 6:51 PM EST
Moon 8:20 AM EST (11/7) 6:34 PM EST (11/7)
Length of Visible Light 11h 33m
Length of Day
10h 42m
Waxing Crescent, 3% of the Moon is Illuminated
Nov 7
Waxing Crescent
Nov 13
First Quarter
Nov 21
Full
Nov 28
Last Quarter
Dec 5
New

Hourly Weather History & Observations

Time (EST) Temp. Windchill Dew Point Humidity Pressure Visibility Wind Dir Wind Speed Gust Speed Precip Events Conditions
12:56 AM 41.0 °F - 35.1 °F 79% 30.36 in 10.0 mi Calm Calm - N/A   Clear
1:56 AM 41.0 °F - 35.1 °F 79% 30.35 in 10.0 mi Calm Calm - N/A   Clear
1:56 AM 41.0 °F 35.2 °F 33.1 °F 73% 30.36 in 10.0 mi NNW 9.2 mph - N/A   Clear
2:56 AM 39.9 °F 35.8 °F 30.9 °F 70% 30.36 in 10.0 mi North 5.8 mph - N/A   Clear
3:56 AM 39.0 °F 36.8 °F 30.0 °F 70% 30.37 in 10.0 mi North 3.5 mph - N/A   Clear
4:56 AM 37.9 °F 35.5 °F 30.0 °F 73% 30.38 in 10.0 mi North 3.5 mph - N/A   Clear
5:56 AM 37.0 °F 34.5 °F 28.9 °F 73% 30.39 in 10.0 mi North 3.5 mph - N/A   Clear
6:56 AM 36.0 °F 33.3 °F 28.9 °F 76% 30.39 in 10.0 mi Variable 3.5 mph - N/A   Clear
7:56 AM 42.1 °F 37.1 °F 30.9 °F 65% 30.41 in 10.0 mi North 8.1 mph - N/A   Partly Cloudy
8:56 AM 45.0 °F 40.6 °F 28.9 °F 53% 30.43 in 10.0 mi NNE 8.1 mph - N/A   Clear
9:56 AM 50.0 °F - 28.9 °F 44% 30.43 in 10.0 mi North 10.4 mph - N/A   Clear
10:56 AM 53.1 °F - 30.0 °F 41% 30.42 in 10.0 mi North 8.1 mph - N/A   Clear
11:56 AM 55.0 °F - 28.9 °F 37% 30.38 in 10.0 mi Variable 6.9 mph - N/A   Clear
12:56 PM 57.9 °F - 27.0 °F 31% 30.34 in 10.0 mi NNW 9.2 mph - N/A   Clear
1:56 PM 57.9 °F - 26.1 °F 30% 30.31 in 10.0 mi NW 13.8 mph - N/A   Clear
2:56 PM 57.9 °F - 25.0 °F 28% 30.29 in 10.0 mi NW 11.5 mph - N/A   Clear
3:56 PM 57.9 °F - 24.1 °F 27% 30.28 in 10.0 mi NW 10.4 mph - N/A   Clear
4:56 PM 55.9 °F - 26.1 °F 32% 30.28 in 10.0 mi NNW 9.2 mph - N/A   Clear
5:56 PM 48.9 °F - 33.1 °F 54% 30.27 in 10.0 mi Calm Calm - N/A   Clear
6:56 PM 46.0 °F - 36.0 °F 68% 30.27 in 10.0 mi Calm Calm - N/A   Clear
7:56 PM 43.0 °F - 35.1 °F 74% 30.27 in 10.0 mi Calm Calm - N/A   Clear
8:56 PM 42.1 °F - 37.0 °F 82% 30.27 in 10.0 mi Calm Calm - N/A   Clear
9:56 PM 42.1 °F 40.2 °F 37.0 °F 82% 30.26 in 10.0 mi NNW 3.5 mph - N/A   Clear
10:56 PM 42.1 °F - 35.1 °F 76% 30.25 in 10.0 mi Calm Calm - N/A   Clear